Weather in Puerto Galera

Philippines     13°30′18″N   120°56′53″E
temp.,
°C
wind,
m/s
gust,
m/s
humid.,
%
clouds,
%
prec.,
mm/h
press.,
hPa
HPBL,
m
6 march, sat
sat623:00+25ese798421 0.4 1014829
02:00+25ese788517 0.8 1013806
05:00+25e788317 0.3 1014812
08:00+25ese688349 0.8 1015825
11:00+26ese787772 0.4 1015799
14:00+27ese687084 0.5 1013621
17:00+27se677717 0.0 1013416
20:00+26e578022 0.3 1013474
7 march, sun
sun723:00+25e578381 0.3 1014617
02:00+25ese688481 0.7 1012747
05:00+25e6783100 0.4 1013756
08:00+25ese788071 0.6 1015947
11:00+26ese897622 0.3 1015942
14:00+27se786723 0.3 1012770
17:00+26se78710 0.0 1011499
20:00+25e57763 0.1 1013656
8 march, mon
mon823:00+25e688158 0.6 1014809
02:00+24e578270 1.2 1013801
05:00+24ese5783100 0.6 1012701
08:00+24ese6883100 1.2 1014770
11:00+26se898055 0.4 1014700
14:00+26se897747 1.2 1012644
17:00+26se8979100 0.8 1011579
20:00+25ese798273 1.6 1013898
9 march, tue
tue923:00+25ese7108271 1.2 1014955
02:00+25ese898185 1.8 1013974
05:00+24e7981100 0.4 1012863
08:00+25ese71079100 0.5 1014867
11:00+26ese9107656 0.3 1015910
14:00+26se9107852 0.7 1012703
17:00+26se897843 0.3 1011801
20:00+25ese798132 0.9 1014868
10 march, wed
wed1023:00+25e7108340 2.7 1015979
02:00+24e7108451 5.6 1013919
05:00+24ese798344 2.6 1013941
08:00+25e7108160 3.9 10151076
11:00+26ese8107319 0.5 10141011
14:00+27ese9106811 0.8 1012717
17:00+26ese797463 0.1 1011649
20:00+25e7117982 1.4 10141097